Location: N�rnberg
(49.4489°N, 11.0797°E)
Time: 08:42:21
(UTC+02:00)

ISS - Visible Passes

Search period start: 24 September 2017 00:00
Search period end: 04 October 2017 00:00
Orbit: 401 x 407 km, 51.6° (Epoch: 24 September)

Date Brightness Start Highest point End Pass type
(mag) Time Alt. Az. Time Alt. Az. Time Alt. Az.
25 Sep -1.1 21:19:14 10° SW 21:19:31 12° SW 21:19:31 12° SW visible
26 Sep -2.4 20:27:26 10° SSW 20:29:53 23° SSE 20:29:53 23° SSE visible
27 Sep -1.8 19:36:07 10° S 19:37:58 14° SE 19:39:48 10° ESE visible
27 Sep -2.6 21:10:41 10° WSW 21:12:44 34° SW 21:12:44 34° SW visible
28 Sep -3.3 20:18:32 10° SW 20:21:39 41° SSE 20:22:45 30° ESE visible
28 Sep -0.8 21:54:47 10° W 21:55:24 15° W 21:55:24 15° W visible
29 Sep -3.6 21:02:22 10° WSW 21:05:17 67° W 21:05:17 67° W visible
30 Sep -3.9 20:10:01 10° WSW 20:13:16 73° SSE 20:15:03 25° ENE visible
30 Sep -1.1 21:46:37 10° W 21:47:42 19° WNW 21:47:42 19° WNW visible
01 Oct -3.5 20:54:08 10° W 20:57:23 62° N 20:57:23 62° N visible
02 Oct -3.7 20:01:40 10° W 20:04:56 75° NNW 20:07:01 21° ENE visible
02 Oct -1.2 21:38:21 10° WNW 21:39:39 21° WNW 21:39:39 21° WNW visible
03 Oct -3.5 20:45:52 10° W 20:49:07 56° N 20:49:14 55° N visible
